Regional Weather Roundup
Issued by NWS

Home | Current Version | Previous Version | Graphics & Text | Print | Product List | Glossary On
Versions: 1 2 3 4 5 6 7 8 9 10 11 12 13 14 15 16 17 18 19 20 21 22 23 24 25 26 27 28 29 30 31 32 33 34 35 36 37 38 39 40 41 42 43 44 45 46 47 48 49 50
000
ASUS43 KFSD 281902
RWRSD

WEATHER ROUNDUP FOR SOUTH DAKOTA
NATIONAL WEATHER SERVICE SIOUX FALLS SD
100 PM CST WED JAN 28 2015

NOTE: "FAIR" INDICATES FEW OR NO CLOUDS BELOW 12,000 FEET WITH NO
SIGNIFICANT WEATHER AND/OR OBSTRUCTIONS TO VISIBILITY.


SDZ001>005-009-010-012>017-282000-
NORTHWEST AND NORTH CENTRAL SOUTH DAKOTA

CITY           SKY/WX    TMP DP  RH WIND       PRES   REMARKS
BUFFALO          N/A     47  29  49 NW36G43   29.83R
FAITH            N/A     55  28  35 NW25G33   29.82F
MOBRIDGE       CLOUDY    48  35  60 NW17      29.73F
$$

SDZ012>016-024>037-041>051-057-063-072>074-282000-
SOUTHWEST AND SOUTH CENTRAL SOUTH DAKOTA

CITY           SKY/WX    TMP DP  RH WIND       PRES   REMARKS
RAPID CTY ARPT CLOUDY    55  25  31 N26G35    29.90R
PIERRE         PTSUNNY   53  34  48 NW23      29.74S
CUSTER         CLOUDY    46  20  35 VRB5G26   29.96R
ELLSWORTH AFB  CLOUDY    54  25  32 NW23G30   29.90R
PHILIP         PTSUNNY   60  27  28 NW26G45   29.81S
PINE RIDGE     PTSUNNY   55  31  39 NW15      29.91R
WINNER         FAIR      61  33  35 NW23G30   29.73F
$$

SDZ004>011-016>023-039-040-282000-
NORTHEAST SOUTH DAKOTA

CITY           SKY/WX    TMP DP  RH WIND       PRES   REMARKS
ABERDEEN       PTSUNNY   40  33  76 CALM      29.71F
WATERTOWN      CLOUDY    35  32  88 SE5       29.70F
SISSETON         N/A     34  32  92 S8        29.74F WCI  27
$$

SDZ017-020-022-023-036>040-048>070-282000-
SOUTHEAST SOUTH DAKOTA

CITY           SKY/WX    TMP DP  RH WIND       PRES   REMARKS
SIOUX FALLS    PTSUNNY   41  34  76 SE13      29.69F
HURON          MOSUNNY   41  34  76 N8        29.70F
MITCHELL       MOSUNNY   45  35  68 NW10      29.69F
YANKTON        MOSUNNY   50  34  53 SW5       29.68F
$$

ABBREVIATIONS USED IN REMARKS
   TC - TEMPERATURE IN CELSIUS
  WCI - WIND CHILL INDEX
   HX - HEAT INDEX
  VSB - VISIBILITY




USA.gov is the U.S. government's official web portal to all federal, state and local government web resources and services.